Skip Page Navigation
NASA JPL Caltech
NASA Logo - Jet Propulsion Laboratory + View the NASA Portal
+ Center for Near-Earth Object Studies
JPL Home Earth Solar System Stars & Galaxies Technology
JPL Solar System Dynamics
BODIES ORBITS EPHEMERIDES TOOLS PHYSICAL DATA DISCOVERY FAQ SITE MAP
JPL Small-Body Database Browser
Search: [ help ]  
357984 (2006 CP13)
Classification: Main-belt Asteroid          SPK-ID: 2357984
Ephemeris | Orbit Diagram | Orbital Elements | Mission Design | Physical Parameters | Discovery Circumstances | Close-Approach Data ]

[ show orbit diagram ]
Orbital Elements at Epoch 2459000.5 (2020-May-31.0) TDB
Reference: JPL 11 (heliocentric ecliptic J2000)
 Element Value Uncertainty (1-sigma)   Units 
e .04751490148330764 5.2044e-08  
a 2.329500644755232 2.123e-08 au
q 2.218814651114386 1.2075e-07 au
i 5.659852892010018 8.166e-06 deg
node 319.0020559510104 5.798e-05 deg
peri 284.5660968297256 0.00010991 deg
M 271.165365016299 9.4474e-05 deg
tp 2459320.959020401855
(2021-Apr-16.45902040)
0.00034044 TDB
period 1298.651673030847
3.56
1.7753e-05
4.861e-08
d
yr
n .2772105927063699 3.7895e-09 deg/d
Q 2.440186638396079 2.2238e-08 au
  Orbit Determination Parameters
   # obs. used (total)      139  
   data-arc span      5139 days (14.07 yr)  
   first obs. used      2006-01-07  
   last obs. used      2020-02-02  
   planetary ephem.      DE431  
   SB-pert. ephem.      SB431-N16  
   condition code      0  
   norm. resid. RMS      .60484  
   source      ORB  
   producer      Otto Matic  
   solution date      2020-Feb-26 00:34:17  

Additional Information
 Earth MOID = 1.21332 au 
 Jupiter MOID = 2.575 au 
 T_jup = 3.564 
[ show covariance matrix ]

Ephemeris | Orbit Diagram | Orbital Elements | Mission Design | Physical Parameters | Discovery Circumstances | Close-Approach Data ]

Physical Parameter Table
Parameter Symbol Value Units Sigma Reference Notes
absolute magnitude H 17.5   n/a MPO455584  

357984 (2006 CP13)          Discovered 2006-Jan-07 by Mt. Lemmon Survey at Mount Lemmon
Reference: 20130327/Numbers.arcLast Updated: 2013-03-29

[ show close-approach data ]
Ephemeris | Orbit Diagram | Orbital Elements | Mission Design | Physical Parameters | Discovery Circumstances | Close-Approach Data ]
ABOUT SSD CREDITS/AWARDS PRIVACY/COPYRIGHT GLOSSARY LINKS
FirstGov 2020-Oct-01 23:57 UT
(server date/time)  
NASA Home Page
Site Manager:   Ryan S. Park
Webmaster  Alan B. Chamberlin